Moose, Wyoming, United States (83012)
Lat: 43.66N, Lon: 110.72W
Wx Zone: WYZ013
Local Info
Past Weather Observations for Saturday, August 29, 2015

NOTE: This archive is for the closest National Weather Service station to Moose. Information may differ from the station used for current weather conditions.

Click here for Long-term Archive

Time Weather Temperature Dewpoint Humidity Pressure Winds Precip Visibility
23:55
Mostly Cloudy
Thunder Storms
64°F / 18°C 48°F / 9°C 56% 30.12 in
(1020 mb)
N 6.9 mph
(N 11 kph)
- 10SM
23:15
Mostly Cloudy
Thunder Storms
64°F / 18°C 48°F / 9°C 56% 30.15 in
(1021 mb)
SW 13.8 mph
(SW 22 kph)
- 10SM
22:55
Clear
63°F / 17°C 46°F / 8°C 56% 30.09 in
(1019 mb)
NW 8.1 mph
(NW 13 kph)
- 10SM
22:35
Clear
64°F / 18°C 45°F / 7°C 49% 30.09 in
(1019 mb)
NW 5.8 mph
(NW 9 kph)
- 10SM
22:15
Clear
66°F / 19°C 43°F / 6°C 43% 30.09 in
(1019 mb)
ENE 10.4 mph
(ENE 17 kph)
- 10SM
21:55
Clear
68°F / 20°C 43°F / 6°C 40% 30.09 in
(1019 mb)
SSW 3.5 mph
(SSW 6 kph)
- 10SM
21:35
Partly Cloudy
70°F / 21°C 43°F / 6°C 38% 30.09 in
(1019 mb)
WNW 12.7 mph
(WNW 20 kph)
- 10SM
21:15
Partly Cloudy
70°F / 21°C 45°F / 7°C 40% 30.09 in
(1019 mb)
W 16.1 mph
(W 26 kph)
- 10SM
20:55
Clear
66°F / 19°C 43°F / 6°C 43% 30.09 in
(1019 mb)
Calm - 10SM
19:55
Clear
66°F / 19°C 41°F / 5°C 40% 30.09 in
(1019 mb)
SE 5.8 mph
(SE 9 kph)
- 10SM
18:51
Clear
72°F / 22°C 43°F / 6°C 36% 30.09 in
(1019 mb)
S 4.6 mph
(S 7 kph)
- 10SM
17:51
Clear
79°F / 26°C 43°F / 6°C 28% 30.09 in
(1019 mb)
S 6.9 mph
(S 11 kph)
- 10SM
16:51
Clear
82°F / 28°C 39°F / 4°C 21% 30.09 in
(1019 mb)
S 16.1 mph
(S 26 kph)
- 10SM
15:51
Clear
81°F / 27°C 41°F / 5°C 24% 30.12 in
(1020 mb)
SSE 11.5 mph
(SSE 19 kph)
- 10SM
14:51
Clear
81°F / 27°C 45°F / 7°C 28% 30.15 in
(1021 mb)
S 9.2 mph
(S 15 kph)
- 10SM
13:51
Mostly Cloudy
79°F / 26°C 39°F / 4°C 24% 30.18 in
(1022 mb)
SSW 6.9 mph
(SSW 11 kph)
- 10SM
12:51
Partly Cloudy
77°F / 25°C 45°F / 7°C 32% 30.21 in
(1023 mb)
Calm - 10SM
11:55
Mostly Cloudy
72°F / 22°C 43°F / 6°C 36% 30.24 in
(1024 mb)
S 4.6 mph
(S 7 kph)
- 10SM
11:51
Mostly Cloudy
72°F / 22°C 43°F / 6°C 36% 30.24 in
(1024 mb)
Calm - 10SM
11:15
Partly Cloudy
72°F / 22°C 45°F / 7°C 38% 30.24 in
(1024 mb)
SSE 3.5 mph
(SSE 6 kph)
- 10SM
10:51
Partly Cloudy
70°F / 21°C 43°F / 6°C 38% 30.24 in
(1024 mb)
Calm - 10SM
10:35
Mostly Cloudy
70°F / 21°C 43°F / 6°C 38% 30.24 in
(1024 mb)
Calm - 10SM
10:15
Mostly Cloudy
66°F / 19°C 45°F / 7°C 46% 30.24 in
(1024 mb)
SW 3.5 mph
(SW 6 kph)
- 10SM
09:55
Partly Cloudy
66°F / 19°C 43°F / 6°C 43% 30.27 in
(1025 mb)
SW 4.6 mph
(SW 7 kph)
- 10SM
09:51
Clear
64°F / 18°C 43°F / 6°C 46% 30.27 in
(1025 mb)
Calm - 10SM
09:35
Partly Cloudy
63°F / 17°C 43°F / 6°C 49% 30.27 in
(1025 mb)
SE 3.5 mph
(SE 6 kph)
- 10SM
09:15
Mostly Cloudy
61°F / 16°C 45°F / 7°C 55% 30.27 in
(1025 mb)
Calm - 10SM
08:55
Mostly Cloudy
61°F / 16°C 43°F / 6°C 52% 30.27 in
(1025 mb)
Calm - 10SM
08:51
Overcast
61°F / 16°C 43°F / 6°C 52% 30.27 in
(1025 mb)
Calm - 10SM
08:35
Mostly Cloudy
57°F / 14°C 43°F / 6°C 59% 30.27 in
(1025 mb)
Calm - 10SM
08:15
Partly Cloudy
55°F / 13°C 43°F / 6°C 63% 30.27 in
(1025 mb)
Calm - 10SM
07:55
Mostly Cloudy
55°F / 13°C 43°F / 6°C 63% 30.3 in
(1026 mb)
Calm - 10SM
07:51
Partly Cloudy
54°F / 12°C 43°F / 6°C 67% 30.3 in
(1026 mb)
Calm - 10SM
07:35
Clear
52°F / 11°C 43°F / 6°C 72% 30.3 in
(1026 mb)
Calm - 10SM
07:15
Clear
48°F / 9°C 43°F / 6°C 82% 30.3 in
(1026 mb)
Calm - 10SM
06:55
Clear
46°F / 8°C 43°F / 6°C 87% 30.3 in
(1026 mb)
N 3.5 mph
(N 6 kph)
- 10SM
06:51
Clear
46°F / 8°C 43°F / 6°C 87% 30.3 in
(1026 mb)
Calm - 10SM
06:35
Clear
45°F / 7°C 43°F / 6°C 93% 30.27 in
(1025 mb)
Calm - 10SM
06:15
Clear
43°F / 6°C 41°F / 5°C 93% 30.27 in
(1025 mb)
N 5.8 mph
(N 9 kph)
- 10SM
05:55
Clear
43°F / 6°C 41°F / 5°C 93% 30.27 in
(1025 mb)
N 5.8 mph
(N 9 kph)
- 10SM
05:51
Clear
45°F / 7°C 41°F / 5°C 87% 30.27 in
(1025 mb)
Calm - 10SM
05:35
Clear
45°F / 7°C 41°F / 5°C 87% 30.27 in
(1025 mb)
N 3.5 mph
(N 6 kph)
- 10SM
05:15
Clear
45°F / 7°C 43°F / 6°C 93% 30.27 in
(1025 mb)
N 4.6 mph
(N 7 kph)
- 10SM
04:55
Clear
45°F / 7°C 41°F / 5°C 87% 30.27 in
(1025 mb)
N 3.5 mph
(N 6 kph)
- 10SM
04:35
Clear
45°F / 7°C 43°F / 6°C 93% 30.27 in
(1025 mb)
N 4.6 mph
(N 7 kph)
- 10SM
04:15
Clear
45°F / 7°C 43°F / 6°C 93% 30.27 in
(1025 mb)
Calm - 10SM
03:55
Clear
45°F / 7°C 39°F / 4°C 81% 30.27 in
(1025 mb)
Calm - 10SM
03:35
Clear
45°F / 7°C 43°F / 6°C 93% 30.27 in
(1025 mb)
NNW 4.6 mph
(NNW 7 kph)
- 10SM
02:55
Clear
46°F / 8°C 43°F / 6°C 87% 30.27 in
(1025 mb)
N 5.8 mph
(N 9 kph)
- 10SM
02:35
Clear
48°F / 9°C 43°F / 6°C 82% 30.27 in
(1025 mb)
N 5.8 mph
(N 9 kph)
- 10SM
02:15
Clear
46°F / 8°C 43°F / 6°C 87% 30.27 in
(1025 mb)
Calm - 10SM
01:55
Clear
48°F / 9°C 45°F / 7°C 87% 30.27 in
(1025 mb)
Calm - 10SM
01:35
Clear
48°F / 9°C 45°F / 7°C 87% 30.27 in
(1025 mb)
NNW 3.5 mph
(NNW 6 kph)
- 10SM
01:15
Clear
48°F / 9°C 45°F / 7°C 87% 30.27 in
(1025 mb)
N 3.5 mph
(N 6 kph)
- 10SM
00:55
Clear
46°F / 8°C 45°F / 7°C 93% 30.27 in
(1025 mb)
N 4.6 mph
(N 7 kph)
- 10SM
00:35
Clear
48°F / 9°C 45°F / 7°C 87% 30.27 in
(1025 mb)
N 9.2 mph
(N 15 kph)
- 10SM
00:15
Clear
48°F / 9°C 45°F / 7°C 87% 30.27 in
(1025 mb)
NNW 6.9 mph
(NNW 11 kph)
- 10SM
Time Weather Temperature Dewpoint Humidity Pressure Winds Precip Visibility


Weather for websites

WeatherForYou.com, LLC is not responsible for any damages or problems caused by this service. Current weather conditions are obtained from the closest station including government and personal stations which may have varying degrees of accuracy. Weather forecasts are derived from the NOAA NDFD. Like all things, this site belongs to Jesus Christ... He just trusts us to maintain it. If you have any questions or comments email webmaster@weatherforyou.com

Copyright © 2015, WeatherForYou.com LLC. All rights reserved.